GFSSE_sfc_temp_159.txt.gz
Temp
71 75 75 77 77 77 77 77 76 76 76 76 76 76 76 76 76 76 77 78 78 77 78 77 77 77 77 76 75 75 74 74 73 74 74 74 75 76 75 74 74 76 74
74 75 74 75 77 76 76 76 76 76 76 76 76 76 76 76 76 76 76 77 76 77 77 77 76 77 76 75 75 74 74 73 72 72 72 74 75 74 74 74 74 75 74
73 75 76 74 75 75 75 75 75 76 76 76 76 76 76 76 76 76 76 76 76 77 76 76 75 75 75 74 74 74 73 72 72 71 72 75 76 74 73 73 73 74 74
74 75 76 73 74 75 75 75 75 76 76 76 76 76 76 76 76 76 76 76 76 76 75 75 75 74 74 74 74 74 73 72 71 70 76 75 76 73 73 73 73 73 73
73 74 74 72 74 75 75 75 75 75 76 76 76 76 76 76 76 76 76 76 75 76 74 75 73 72 73 73 73 74 73 71 69 72 75 75 74 73 73 71 72 72 72
72 73 72 73 74 75 74 75 75 75 75 76 76 75 76 75 75 75 75 75 75 75 74 74 72 72 72 72 72 74 72 70 69 73 71 71 73 72 72 71 71 71 71
71 73 73 72 73 74 74 74 74 75 75 75 75 75 75 75 75 75 75 75 74 74 74 73 71 71 71 71 71 73 71 68 72 69 69 71 73 72 71 71 71 71 72
70 72 73 69 70 72 73 73 74 74 74 75 75 74 74 74 74 74 75 74 74 74 74 73 70 70 70 71 70 71 68 68 69 72 71 71 71 71 71 70 70 71 71
71 71 72 72 71 67 69 70 71 72 73 73 74 73 73 72 73 73 73 74 74 73 73 71 70 70 70 70 69 68 67 66 73 72 71 73 70 71 71 70 70 70 70
70 71 71 71 71 72 72 66 67 69 70 71 70 69 68 69 70 70 68 71 73 72 72 70 69 69 70 69 68 66 64 64 71 70 71 73 70 71 70 70 69 69 69
67 69 70 70 70 71 71 69 65 66 67 67 68 66 67 71 72 72 67 68 71 71 71 70 69 68 67 65 65 64 63 71 70 70 71 67 70 71 70 69 69 69 68
65 67 69 69 69 70 70 70 70 70 71 71 70 70 70 69 69 68 65 65 68 68 69 69 69 67 64 68 68 64 69 68 69 69 70 65 69 71 70 69 69 68 68
68 67 69 69 69 69 69 69 68 68 68 68 69 68 68 68 67 68 67 68 70 64 70 70 69 68 66 66 67 67 67 67 68 67 66 64 68 71 70 69 69 68 68
66 68 69 69 68 68 69 68 69 67 67 67 67 67 66 66 65 65 65 66 66 67 67 67 66 66 65 64 65 65 66 66 66 66 65 60 65 69 71 70 69 69 68
65 67 68 68 68 68 67 68 68 67 67 68 66 67 67 66 65 65 64 64 65 66 66 65 65 65 64 64 64 64 64 65 65 65 66 57 61 67 70 71 71 70 69
67 68 68 68 69 69 68 68 68 69 68 66 67 67 65 66 65 64 64 63 64 65 65 65 65 64 64 64 64 64 65 65 65 64 65 65 60 64 68 71 71 70 70
67 68 68 67 69 68 68 68 69 69 70 68 66 66 65 65 64 65 64 63 64 64 64 64 64 63 62 62 62 63 63 64 64 63 64 65 65 60 63 68 70 71 71
66 65 67 68 68 67 68 68 69 69 69 69 68 66 65 65 65 64 63 63 64 64 64 63 63 62 62 61 62 63 63 63 64 63 63 64 64 64 62 64 67 69 70
67 66 66 66 67 67 68 68 68 68 68 69 69 67 65 65 65 65 64 64 63 63 63 63 62 61 62 61 61 63 62 62 63 64 63 63 63 63 64 62 62 63 67
64 65 66 66 66 67 68 67 68 67 67 68 68 67 66 65 65 64 65 64 63 62 62 61 61 61 61 62 61 61 62 63 63 63 64 64 64 63 64 63 63 63 61
62 62 64 65 66 66 65 65 65 65 66 67 67 68 67 66 65 64 65 64 62 62 63 62 61 60 58 59 58 60 61 62 62 63 64 65 63 62 63 63 63 63 63
60 60 61 63 65 66 67 67 68 67 68 68 68 67 66 65 65 65 64 64 63 62 63 62 61 60 60 60 58 58 54 60 59 63 64 63 63 63 62 62 63 62 62
57 57 60 62 63 65 66 67 67 67 65 65 66 65 66 66 65 65 65 65 64 63 62 62 61 61 60 59 61 60 53 52 55 56 58 62 63 62 63 62 62 62 62
54 56 58 58 59 63 64 65 64 64 63 66 67 66 66 65 65 66 65 64 64 62 61 62 63 61 61 59 55 60 63 61 56 56 55 57 59 60 61 61 62 61 61
53 53 55 56 57 59 61 63 64 63 65 67 67 65 64 65 64 65 66 64 63 63 62 63 61 61 62 61 60 58 56 58 59 55 54 59 59 59 61 60 61 61 61
50 50 53 53 52 54 55 58 61 61 62 63 64 63 63 64 64 64 65 65 65 64 64 64 63 62 61 61 61 61 58 56 56 56 54 56 57 62 59 59 59 60 60

GFSSE_sfc_temp_162.txt.gz
Temp
80 83 75 77 77 77 77 77 76 76 76 76 76 76 76 76 76 76 77 77 77 78 78 78 78 77 76 75 75 74 74 73 73 74 75 75 75 75 75 74 75 77 74
82 84 74 76 76 77 76 76 76 76 76 76 76 76 76 76 76 77 77 76 77 77 77 77 77 76 75 75 74 74 73 73 72 73 74 74 74 74 74 73 74 76 74
82 82 80 74 75 76 76 75 75 76 76 76 76 76 76 76 76 76 77 76 76 76 76 76 76 76 74 74 74 74 73 72 72 72 74 80 77 74 74 73 73 74 74
82 82 83 72 74 75 75 75 75 76 76 76 76 76 76 76 76 77 76 76 76 76 76 76 76 74 74 74 74 74 73 72 71 73 80 80 79 73 73 73 73 73 74
82 83 81 73 74 75 75 75 75 76 76 76 76 76 76 76 76 76 76 76 76 75 75 76 74 74 73 73 74 73 72 71 71 76 79 79 78 74 72 72 73 72 73
82 82 74 73 75 75 75 75 75 75 76 76 75 75 75 76 75 76 75 75 75 75 75 75 73 73 72 72 73 73 72 71 72 79 79 76 77 72 72 71 71 71 72
81 82 80 72 73 74 74 75 75 75 75 75 76 75 75 75 75 75 75 75 74 75 74 74 72 71 71 71 72 72 71 70 77 77 77 77 76 72 71 71 71 72 72
81 80 81 70 70 72 73 74 74 74 75 75 75 74 74 74 74 74 75 75 74 74 74 73 71 71 71 71 71 71 69 69 75 78 77 79 71 71 71 71 71 71 71
81 80 80 80 75 67 70 71 72 73 73 73 74 74 73 72 73 73 73 74 74 74 73 72 70 70 70 70 70 69 68 67 79 80 78 79 70 71 71 70 70 71 71
80 80 80 80 80 80 79 67 68 70 70 71 71 70 69 69 70 70 69 71 73 72 73 71 70 70 70 69 69 66 65 66 79 77 78 78 70 71 71 70 70 70 70
76 76 79 79 79 80 79 76 66 66 67 67 69 66 67 78 78 73 69 69 71 71 71 70 70 69 68 67 66 65 63 78 78 78 78 68 70 71 70 70 69 69 69
75 74 77 78 79 79 79 78 77 78 78 78 77 77 78 78 78 77 69 65 68 68 69 70 69 67 65 76 75 66 76 77 77 77 77 67 69 71 71 70 69 69 69
79 78 76 76 77 78 78 78 78 78 77 77 77 77 77 76 76 75 77 75 75 66 75 73 73 74 74 74 75 75 75 75 76 76 72 65 68 71 71 70 69 69 69
77 78 79 79 75 73 78 78 78 77 77 76 76 75 75 74 74 75 75 75 74 76 75 75 74 74 73 73 72 73 74 74 75 74 73 61 65 69 71 71 70 69 69
78 79 80 79 78 75 72 78 78 78 77 77 77 76 75 74 73 74 74 75 75 75 75 74 74 73 72 72 72 72 72 73 73 74 74 59 61 66 70 72 71 70 70
80 80 82 80 79 79 77 75 76 75 77 77 77 76 75 75 74 73 73 73 73 74 75 74 73 73 72 72 72 72 71 72 73 73 74 73 60 63 67 70 72 71 71
79 80 80 80 80 78 78 77 77 75 75 75 76 76 75 74 74 73 73 73 73 73 72 73 72 72 72 72 70 71 71 71 72 72 72 72 71 59 63 67 70 72 71
78 78 79 78 78 78 78 78 78 78 76 76 76 75 74 74 74 74 73 73 74 73 72 71 71 70 70 70 70 71 71 71 71 71 72 71 71 72 65 63 66 69 71
76 77 77 78 77 78 78 78 78 77 75 72 74 74 73 73 74 73 73 73 73 72 71 71 70 70 69 69 69 70 71 71 70 71 70 70 71 70 72 66 61 63 66
74 74 75 76 76 77 77 77 77 76 73 72 71 71 71 70 71 72 73 73 73 71 70 70 69 70 68 69 69 69 70 71 70 70 70 71 70 71 70 70 68 64 61
70 69 71 72 74 76 75 74 74 74 73 73 71 70 70 69 67 70 72 73 72 69 70 71 70 67 66 65 62 62 66 70 69 70 70 70 71 71 70 69 67 67 68
65 66 67 68 71 73 75 75 76 76 76 76 76 73 71 69 67 66 68 69 70 67 68 69 67 66 65 67 58 58 55 66 71 70 70 70 70 72 70 68 68 66 68
62 62 64 65 67 69 72 74 74 74 74 73 73 73 71 69 67 66 66 67 68 66 64 66 67 63 62 64 63 62 56 59 66 71 68 69 69 69 70 68 67 66 68
59 61 63 63 63 65 69 70 70 71 70 74 74 74 73 72 70 68 67 66 66 66 63 64 65 64 62 60 59 61 65 67 62 62 68 66 67 67 67 69 68 68 68
57 58 59 61 60 61 63 66 68 68 70 72 72 71 71 72 72 71 69 67 65 66 65 64 63 61 62 61 60 57 57 59 61 57 56 63 66 67 68 69 69 68 67
56 56 57 58 57 58 60 61 61 61 63 62 62 64 68 70 71 70 71 70 68 66 65 64 63 62 61 61 61 61 59 56 55 55 54 58 62 65 67 68 69 67 66

GFSSE_sfc_temp_165.txt.gz
Temp
82 82 75 77 77 77 77 76 76 76 76 76 76 76 76 76 76 76 77 77 77 78 78 78 77 76 76 75 75 74 74 74 75 75 75 75 75 75 75 74 75 76 75
83 83 74 75 76 77 77 76 76 76 76 76 76 76 76 76 76 77 76 77 77 77 77 77 76 76 75 74 74 74 74 73 73 73 74 74 74 74 74 73 74 75 74
83 82 80 75 75 76 76 75 75 76 76 76 76 76 76 76 76 77 76 76 77 76 77 76 76 75 74 74 74 74 73 73 73 74 75 78 75 74 74 73 74 74 74
85 84 83 73 75 75 75 75 75 76 76 76 76 76 76 76 76 77 76 76 76 76 75 76 75 74 74 74 74 73 73 72 72 73 80 80 78 73 74 73 74 74 74
86 86 79 73 75 75 75 75 75 75 76 76 76 76 76 76 75 76 76 76 76 76 76 76 74 74 73 74 74 73 72 72 72 76 79 78 78 73 73 73 73 72 73
85 86 74 73 75 75 75 75 75 75 76 76 75 75 75 75 75 76 75 75 75 75 75 75 74 73 73 73 73 72 72 72 72 80 79 76 75 72 72 72 72 72 72
85 85 80 72 74 74 74 75 75 75 75 75 75 75 75 75 75 75 74 74 74 74 74 74 73 72 72 72 73 72 71 71 78 78 78 78 74 72 72 72 72 72 72
85 83 80 70 71 72 73 74 74 74 75 75 75 75 74 74 74 74 74 74 74 74 74 73 72 71 71 71 72 71 69 69 75 79 78 77 71 72 71 71 71 72 72
85 82 82 80 75 68 70 71 72 73 73 73 74 73 73 72 73 73 73 74 74 74 74 73 71 70 71 71 71 70 68 67 73 79 78 78 70 72 71 71 71 71 71
84 84 81 81 80 79 79 67 68 70 71 71 71 70 69 69 69 69 69 71 73 73 73 72 70 70 70 70 69 67 66 67 75 78 77 74 71 72 71 70 70 70 71
81 82 83 81 80 79 79 74 66 66 67 68 69 66 67 77 78 75 71 70 71 71 71 71 70 69 68 67 68 66 64 75 78 78 78 68 70 71 71 70 70 70 70
80 81 82 82 82 80 79 80 78 79 77 77 77 77 76 78 79 77 71 66 68 68 69 70 69 68 65 73 74 66 72 76 77 77 77 68 69 71 71 70 70 70 69
84 83 81 81 82 82 79 78 77 76 76 78 78 77 77 78 77 77 76 74 73 65 73 72 71 71 72 74 75 76 76 76 76 76 74 67 68 71 72 71 70 70 69
83 83 84 83 81 80 81 80 78 76 75 77 78 78 76 75 75 75 75 76 74 76 73 75 72 73 74 74 73 73 74 74 75 75 73 63 66 69 71 72 71 71 70
83 84 85 84 83 81 77 78 80 78 76 77 78 78 77 76 74 75 75 75 76 76 75 74 74 74 73 73 73 72 72 72 73 74 74 60 63 67 70 71 72 71 71
83 83 85 85 84 83 80 76 78 81 81 79 78 78 78 77 76 75 75 74 74 75 75 74 74 73 72 72 72 72 72 72 72 72 73 72 62 64 67 70 72 72 72
82 83 83 83 84 83 81 81 80 80 79 77 78 77 77 77 76 76 75 75 75 75 74 74 74 74 72 73 72 72 71 71 71 71 72 71 70 61 64 67 70 71 72
80 80 82 82 82 81 81 82 81 81 80 74 74 76 76 76 76 75 75 75 76 75 74 73 73 71 71 71 71 71 71 71 71 71 71 71 71 71 63 64 66 69 71
79 79 79 80 80 80 81 81 81 80 80 80 79 79 76 75 75 74 75 75 75 74 73 73 72 71 70 70 70 71 72 72 72 72 71 71 71 70 70 65 62 63 67
76 76 76 77 78 79 79 79 80 79 79 80 77 73 74 74 72 72 72 73 73 71 71 71 70 71 70 70 71 71 71 71 71 71 71 71 71 70 70 69 65 63 61
72 71 72 72 74 76 76 76 76 76 77 78 77 73 71 71 70 68 68 70 70 68 68 70 69 67 66 68 63 65 68 70 70 71 71 71 70 70 70 69 68 67 65
68 68 69 69 71 73 74 76 77 78 79 79 79 78 74 70 68 66 66 66 66 66 66 66 66 64 64 66 58 58 54 63 68 70 71 70 69 70 69 70 69 68 67
64 64 66 66 67 69 72 73 75 76 76 75 75 75 76 70 67 66 66 66 65 65 64 64 64 63 61 63 62 59 53 54 64 71 71 70 69 69 69 69 69 68 67
61 63 64 64 64 66 67 71 71 71 71 75 75 75 73 70 69 68 67 66 66 66 64 63 64 63 62 59 61 61 62 62 56 57 68 68 69 69 68 68 69 68 67
60 60 62 62 62 63 64 65 66 64 66 67 67 66 68 70 72 71 69 67 65 65 64 63 63 62 62 61 60 56 57 58 59 55 54 59 67 67 68 69 68 67 67
59 58 59 60 58 59 61 62 62 62 63 61 61 60 61 60 60 60 61 61 66 66 64 63 63 63 62 61 60 60 58 55 55 55 54 56 57 63 68 68 67 67 67

GFSSE_sfc_temp_168.txt.gz
Temp
74 75 75 77 77 77 76 76 76 76 76 76 76 76 76 76 76 76 76 77 77 77 77 77 76 76 76 76 75 75 75 75 75 75 75 75 75 75 75 74 73 72 75
77 77 74 76 77 77 76 75 75 75 76 76 76 76 76 76 76 76 76 77 76 77 77 76 76 75 75 74 74 74 74 74 73 73 74 74 74 74 74 74 74 73 74
79 77 76 75 76 76 75 75 75 76 76 76 76 76 76 76 76 76 76 76 76 77 76 77 75 75 74 74 74 74 74 74 73 73 74 69 69 74 74 74 74 74 75
80 79 77 73 75 75 75 75 75 76 76 76 76 76 76 76 76 76 76 76 76 75 76 76 75 74 74 74 73 73 73 73 73 73 72 74 72 73 74 74 74 74 74
81 80 75 73 74 75 75 75 75 75 75 76 76 76 76 76 75 76 76 76 76 76 76 76 75 74 73 73 73 73 72 72 72 73 70 69 67 73 74 73 73 73 73
80 77 72 73 74 75 74 75 75 75 75 75 76 76 76 75 75 75 75 75 74 75 75 74 74 73 73 73 73 72 72 72 71 74 72 70 68 72 72 72 72 72 72
79 76 74 73 74 74 74 74 75 75 75 75 75 75 75 75 74 74 74 74 74 75 74 74 73 72 72 72 73 73 71 70 69 70 69 69 67 72 72 72 72 72 72
80 77 74 70 71 72 73 74 74 74 74 74 74 74 74 74 74 74 74 74 73 74 74 73 73 71 71 71 71 71 69 68 69 72 70 66 70 72 72 71 71 72 72
80 78 76 74 71 68 70 71 72 73 73 73 73 73 72 72 72 73 73 73 74 74 74 73 71 70 70 70 70 68 68 67 64 71 74 66 70 72 71 71 71 71 71
77 78 77 75 75 73 70 67 68 69 70 71 70 69 68 68 69 69 68 71 73 73 73 72 70 70 70 69 68 67 65 65 63 70 69 66 71 72 71 70 70 70 71
76 75 75 75 76 75 75 70 65 66 67 67 67 66 65 68 69 69 67 69 71 71 71 71 70 69 68 67 67 66 64 64 66 67 67 67 71 72 72 71 70 70 70
72 73 75 75 74 74 77 71 71 71 68 68 69 68 67 68 69 71 66 66 68 68 69 70 70 67 65 62 63 64 62 64 66 66 65 68 71 72 72 71 70 70 70
73 74 75 74 74 73 72 74 73 72 71 71 72 70 68 70 67 67 65 64 63 62 64 66 65 63 63 62 63 63 64 65 64 65 65 67 70 71 72 72 71 70 70
72 74 75 74 74 73 72 73 74 72 71 71 72 72 68 66 65 65 65 65 64 64 63 64 63 67 64 65 65 65 64 64 63 64 63 63 67 71 72 72 72 71 71
71 72 74 74 74 73 71 70 71 72 71 71 72 73 71 66 65 65 65 64 64 65 64 65 64 65 64 65 65 65 64 64 64 64 63 60 64 69 71 72 73 72 72
72 71 74 74 74 74 71 69 69 70 70 72 73 72 73 69 66 65 65 65 64 65 65 64 64 63 63 64 64 64 64 63 64 63 63 61 62 66 69 71 72 73 73
70 71 72 73 74 72 72 70 70 70 72 69 70 73 72 72 70 67 65 65 65 65 65 64 64 64 63 64 63 64 63 64 63 63 63 62 61 61 64 69 70 71 73
69 70 71 75 72 71 71 70 71 71 70 69 68 69 72 72 72 71 70 65 66 65 65 63 63 62 61 61 61 62 63 63 63 64 64 64 62 65 62 65 67 69 71
67 67 67 68 69 69 70 70 70 71 69 69 68 67 69 71 72 71 70 70 69 69 67 66 63 62 60 60 61 62 62 62 62 66 65 64 64 65 63 62 63 64 67
65 65 65 66 67 67 68 68 67 67 68 69 68 67 68 69 70 69 67 67 67 66 66 66 66 66 66 65 67 67 63 63 63 63 64 66 65 66 65 65 61 61 61
62 61 62 62 63 64 62 62 63 63 65 67 68 68 67 68 68 66 65 65 65 64 65 65 64 63 63 64 60 62 64 66 64 63 64 65 66 66 66 66 65 63 62
59 59 60 60 61 62 63 62 63 64 65 66 68 68 66 65 67 65 64 64 64 63 63 63 62 62 61 62 58 56 54 58 63 65 65 66 66 66 65 65 66 64 63
55 56 58 59 60 60 61 64 64 64 65 64 65 66 67 66 66 65 64 64 63 63 62 62 62 61 60 60 61 58 53 51 57 63 64 66 65 64 64 65 65 64 64
54 55 57 57 57 60 59 60 59 59 58 59 60 62 64 64 65 65 63 64 63 63 62 62 62 61 61 59 59 60 61 60 55 55 61 61 63 63 63 61 63 64 64
53 52 53 53 54 55 56 57 57 56 57 58 60 60 60 60 61 61 59 57 61 62 62 62 61 60 61 60 59 58 57 58 58 55 54 57 60 62 62 65 64 64 64
51 50 50 51 51 52 53 53 52 52 53 52 52 53 56 59 58 57 58 58 59 58 57 60 61 60 61 60 60 59 58 55 54 54 54 56 57 61 62 65 64 65 65

GFSSE_sfc_temp_171.txt.gz
Temp
69 73 75 77 77 77 76 76 76 76 76 76 76 76 76 76 76 76 77 78 77 77 77 77 76 76 76 75 75 75 75 75 75 75 75 75 75 75 75 74 73 71 75
72 74 74 76 76 76 76 75 75 75 76 77 76 76 76 76 76 76 77 76 77 77 77 76 76 75 74 74 74 74 74 74 73 73 73 74 74 74 74 74 74 74 75
73 74 75 75 76 75 75 75 75 76 76 76 77 76 76 76 76 76 76 76 76 77 76 76 75 75 74 74 74 74 74 74 73 73 71 67 68 74 74 74 74 75 74
75 75 74 73 75 75 75 75 75 75 76 76 76 76 76 76 76 76 76 76 76 76 76 76 75 74 74 73 73 73 73 73 72 72 69 69 71 74 74 74 74 74 74
75 75 73 72 74 75 74 74 75 75 75 76 76 76 76 76 76 76 76 75 76 76 76 76 75 74 73 73 73 73 73 72 71 71 66 65 65 72 73 73 72 73 72
77 76 71 73 74 74 74 74 75 75 75 75 75 76 76 75 75 75 74 75 74 75 76 74 73 73 72 73 73 72 72 72 70 71 69 68 66 73 72 72 72 72 72
74 74 72 72 73 74 74 74 74 74 75 75 75 75 75 75 74 74 74 74 74 75 74 74 73 72 71 71 73 72 71 70 66 70 64 65 66 72 72 72 72 72 72
74 74 72 69 70 72 73 73 73 74 74 74 74 74 74 74 74 74 74 74 73 74 74 74 72 71 71 71 70 70 69 68 67 67 65 64 70 72 72 71 71 72 72
77 74 73 72 70 68 69 70 71 72 72 73 73 73 72 72 72 72 72 73 74 74 73 73 71 70 70 70 69 68 67 66 63 65 69 64 70 72 72 71 71 71 71
73 73 70 71 72 70 68 67 68 69 70 70 70 69 68 68 69 69 68 70 73 73 73 72 70 70 70 69 68 67 65 65 62 63 65 64 71 72 72 71 70 71 71
72 71 71 70 70 72 69 68 65 66 67 67 67 66 65 66 67 67 66 67 71 71 71 71 70 69 68 67 66 66 65 62 62 63 64 67 71 73 72 71 70 70 70
68 70 70 70 70 70 75 72 70 70 66 66 66 66 65 65 66 68 64 65 67 68 69 70 70 68 65 60 60 62 61 61 61 62 63 67 71 73 73 72 71 70 70
69 69 71 71 70 70 70 68 70 70 68 68 68 66 65 66 64 63 63 63 63 62 63 65 64 63 61 60 60 59 60 60 60 62 64 66 70 72 73 73 71 71 70
69 70 71 71 71 69 69 71 73 72 70 69 70 70 68 63 63 62 62 62 61 62 61 61 60 62 61 62 61 61 61 60 60 61 60 62 67 72 73 73 73 72 71
68 68 69 69 69 70 68 68 68 67 70 71 71 71 69 67 63 63 62 62 61 61 61 60 60 62 61 62 62 62 62 62 61 61 60 59 63 69 72 73 73 74 72
69 67 69 69 69 69 67 67 67 67 67 67 70 72 71 69 67 63 62 62 62 61 62 61 62 61 61 61 61 62 62 61 61 61 60 60 61 65 69 72 73 73 74
66 66 69 70 70 68 67 67 66 66 68 66 66 68 70 70 69 68 63 62 62 63 63 62 61 61 60 61 60 61 61 61 61 62 61 60 60 61 64 69 71 72 73
64 65 65 68 66 66 66 65 66 67 67 66 66 66 68 69 70 69 67 66 66 65 62 61 61 60 59 59 59 60 60 61 61 62 62 62 62 63 62 65 67 69 71
61 62 62 63 63 63 64 65 65 66 65 65 65 65 67 67 69 69 67 67 67 66 65 65 64 63 61 61 60 61 61 61 61 64 62 61 63 64 63 63 62 63 67
59 59 60 61 61 61 62 62 62 63 64 64 64 64 66 69 69 68 67 66 66 65 64 64 64 63 64 64 65 65 65 65 66 65 64 65 63 64 64 64 60 60 60
56 57 57 58 58 59 57 58 59 59 62 62 64 65 65 65 65 64 66 65 65 63 63 63 63 62 61 62 59 61 63 65 64 65 66 65 64 64 62 63 62 62 60
53 54 55 56 57 58 57 58 59 59 61 63 64 64 64 64 66 66 65 64 63 62 62 62 62 61 61 61 58 57 54 58 61 64 66 66 65 65 61 63 63 62 61
50 51 54 54 55 56 57 59 59 60 59 58 60 60 61 62 62 63 63 63 63 62 61 61 61 60 60 60 60 58 53 52 56 61 59 63 62 61 62 64 62 63 63
49 51 52 52 52 55 55 55 55 54 53 55 56 57 61 60 59 59 59 58 59 61 61 61 61 61 60 59 59 59 60 59 55 54 59 60 59 60 62 61 63 61 63
49 48 49 50 51 51 51 51 51 51 51 51 52 53 54 55 55 55 55 56 56 57 56 56 58 59 59 59 58 58 57 58 58 55 53 57 59 61 62 63 59 62 63
49 48 48 48 48 49 49 48 48 47 48 47 48 47 48 49 49 50 51 51 51 51 51 51 54 56 56 59 59 58 58 55 54 54 53 56 56 59 59 63 63 62 62

GFSSE_sfc_temp_174.txt.gz
Temp
68 71 75 76 77 76 76 76 76 76 76 76 76 76 76 76 76 76 77 77 76 76 77 76 76 75 75 75 74 75 75 74 74 74 74 75 75 75 74 73 73 71 76
70 73 74 76 76 76 76 75 75 75 76 76 76 76 76 76 76 77 76 76 76 76 76 76 75 74 75 74 74 74 74 73 72 72 72 73 74 74 74 74 74 72 75
71 73 74 74 75 75 75 75 75 75 76 76 76 76 76 76 76 76 76 75 76 77 77 76 75 74 74 74 74 74 74 73 72 71 71 66 68 74 74 73 74 74 74
72 73 73 73 74 75 75 75 75 75 75 76 76 76 76 76 76 76 76 75 76 76 76 75 75 74 73 73 73 73 74 73 71 70 66 67 70 74 74 73 74 74 73
72 73 72 72 74 74 74 74 74 75 75 76 76 76 76 76 75 75 75 75 75 75 76 75 74 73 73 73 73 73 73 72 70 68 64 64 64 71 73 72 72 72 72
72 73 70 72 74 74 74 74 74 75 75 75 75 75 75 75 75 75 75 74 74 76 75 74 73 73 72 72 73 72 72 71 69 64 63 67 65 72 72 72 72 71 72
72 72 71 72 73 74 74 74 74 74 74 74 75 75 75 75 74 74 74 74 74 74 74 73 72 71 71 71 72 72 71 69 64 63 62 63 65 72 72 72 72 71 72
73 73 71 69 70 72 73 73 73 73 74 74 74 74 74 74 74 74 74 74 74 74 73 73 71 70 70 70 70 70 69 67 65 63 62 62 69 72 72 71 71 71 72
74 72 69 69 69 67 69 70 71 72 72 72 73 72 72 72 72 72 72 73 73 73 73 72 71 70 70 70 69 68 67 66 62 63 66 62 70 72 72 71 71 71 71
69 70 68 68 69 68 68 66 67 69 70 70 70 69 68 68 69 69 68 70 73 73 72 72 71 70 70 69 68 67 66 65 61 61 63 62 69 73 72 71 71 71 71
69 69 68 67 68 68 68 67 64 65 66 66 66 65 64 66 66 66 65 67 70 71 71 71 70 69 68 67 66 66 64 60 60 60 61 65 69 73 73 71 71 70 71
66 67 67 67 67 67 71 68 67 70 66 66 66 65 64 65 65 66 63 64 67 67 69 70 70 68 64 60 58 61 59 59 59 59 61 66 70 73 73 72 71 70 70
67 67 68 68 67 67 68 67 66 69 68 67 66 64 64 64 62 62 61 61 61 61 63 65 64 63 61 59 58 58 58 58 57 59 61 64 69 72 73 73 72 71 71
66 68 69 68 67 66 67 66 66 66 67 68 68 68 67 64 61 61 60 61 60 61 60 60 60 61 61 60 60 59 59 58 58 59 59 61 66 71 73 74 73 73 72
65 66 67 67 66 67 66 66 66 66 65 66 67 67 68 66 65 61 61 60 60 60 60 59 59 60 60 60 60 60 60 59 59 59 58 59 62 68 71 73 74 74 74
67 66 66 66 66 67 66 65 66 65 66 65 65 67 68 67 67 65 64 61 60 60 60 60 59 59 59 59 60 60 60 60 60 60 60 59 61 64 68 71 73 74 74
65 65 65 66 65 64 64 65 65 65 66 65 65 66 66 66 65 67 65 64 64 64 63 60 59 59 58 59 59 60 60 60 60 60 60 59 60 61 63 68 70 72 73
63 62 61 65 62 62 61 62 63 65 64 64 64 65 66 66 67 67 66 65 66 65 65 63 63 62 61 61 61 61 61 61 61 60 60 61 61 62 62 64 67 69 71
60 60 59 59 59 59 60 61 61 62 63 64 63 64 65 66 69 67 66 66 66 65 64 64 63 63 63 62 62 63 63 63 64 65 63 62 64 63 63 62 62 63 67
56 56 57 57 57 58 58 58 59 59 60 61 62 63 64 66 68 67 67 66 65 64 63 63 62 62 63 63 63 64 62 63 65 64 64 64 64 62 62 62 58 60 60
53 54 54 55 54 55 54 54 56 57 59 61 61 63 63 64 66 65 62 64 66 64 63 64 62 61 60 61 59 60 61 61 60 63 62 62 64 64 60 61 60 59 60
51 51 52 53 53 54 53 55 55 56 57 58 60 59 61 63 63 63 62 63 63 62 62 62 61 60 60 61 58 57 54 57 57 60 64 61 63 60 60 59 59 60 60
48 49 51 51 51 51 52 55 56 56 56 55 56 57 57 57 58 58 58 58 59 61 60 61 60 60 59 60 60 57 53 52 54 60 59 61 60 59 60 58 60 59 60
46 48 49 49 50 52 51 52 52 52 50 51 53 54 54 53 54 55 55 56 56 56 55 56 58 59 60 58 58 58 59 57 53 53 58 58 59 58 58 58 58 59 59
47 46 46 47 48 49 49 49 49 48 49 49 49 49 49 49 49 50 50 51 52 52 50 52 53 55 56 58 58 57 56 57 57 54 52 56 59 57 58 59 59 58 58
46 45 45 46 46 47 47 47 47 47 46 45 45 44 45 45 45 46 47 47 47 47 47 47 48 49 51 53 52 51 51 51 52 52 52 54 54 55 56 57 56 57 58